Weather History for Hatteras, NC

Change the Weather History Date:

Friday, November 4, 2011

  Actual Average Record
Temperature  
Mean Temperature 57 °F 61 °F  
Max Temperature 63 °F 67 °F 81 °F (2003)
Min Temperature 50 °F 54 °F 33 °F (1963)
Degree Days  
Heating Degree Days 8 5  
Month to date heating degree days 26 20  
Since 1 July heating degree days 85 95  
Cooling Degree Days 0 1  
Month to date cooling degree days 0 4  
Year to date cooling degree days 2369 1694  
Growing Degree Days 7 (Base 50)    
Moisture  
Dew Point 55 °F    
Average Humidity 83    
Maximum Humidity 93    
Minimum Humidity 72    
Precipitation  
Precipitation 1.33 in 0.18 in 7.69 in (1985)
Month to date precipitation 1.42 0.73  
Year to date precipitation 55.49 49.55  
Snow  
Snow 0.00 in - - ()
Month to date snowfall 0.0  
Since 1 July snowfall 0.0  
Snow Depth 0.00 in    
Sea Level Pressure  
Sea Level Pressure 29.78 in    
Wind  
Wind Speed 14 mph (NE)    
Max Wind Speed 28 mph    
Max Gust Speed 47 mph    
Visibility 6 miles    
Events Rain    
T = Trace of Precipitation, MM = Missing Value Source: NWS Daily Summary

Daily Weather History Graph

Daily Weather History Graph

Search for Another Location

Airport:

Trip Planner

Search our weather history database for the weather conditions in past years. The results will help you decide how hot, cold, wet, or windy it might be!

Date:

Astronomy

Nov. 04, 2011 Rise Set
Actual Time 7:26 AM EDT 6:05 PM EDT
Civil Twilight 7:00 AM EDT 6:31 PM EDT
Nautical Twilight 6:29 AM EDT 7:01 PM EDT
Astronomical Twilight 6:00 AM EDT 7:31 PM EDT
Moon 2:44 PM EDT (11/4) 1:48 AM EDT (11/4)
Length of Visible Light 11h 31m
Length of Day
10h 38m
Waxing Gibbous, 69% of the Moon is Illuminated
Nov 4
Waxing Gibbous
Nov 10
Full
Nov 18
Last Quarter
Nov 25
New
Dec 2
First Quarter

Hourly Weather History & Observations

Time (EDT) Temp. Dew Point Humidity Pressure Visibility Wind Dir Wind Speed Gust Speed Precip Events Conditions
12:51 AM 52.0 °F 48.9 °F 89% 29.93 in 10.0 mi Calm Calm - N/A   Clear
1:51 AM 55.0 °F 50.0 °F 83% 29.92 in 10.0 mi NNE 4.6 mph - N/A   Clear
2:51 AM 55.9 °F 48.9 °F 77% 29.90 in 10.0 mi NE 4.6 mph - N/A   Clear
3:51 AM 55.0 °F 48.9 °F 80% 29.88 in 10.0 mi NE 4.6 mph - N/A   Clear
4:51 AM 55.0 °F 51.1 °F 86% 29.84 in 6.0 mi East 5.8 mph - N/A   Clear
5:51 AM 55.9 °F 53.1 °F 90% 29.80 in 6.0 mi East 5.8 mph - N/A   Clear
6:51 AM 60.1 °F 55.9 °F 86% 29.76 in 10.0 mi NE 6.9 mph - N/A   Mostly Cloudy
7:51 AM 62.1 °F 57.9 °F 86% 29.77 in 10.0 mi NE 8.1 mph - N/A   Overcast
8:48 AM 60.8 °F 57.2 °F 88% 29.79 in 3.0 mi NW 15.0 mph 25.3 mph 0.04 in Rain Rain
8:51 AM 61.0 °F 57.9 °F 90% 29.79 in 3.0 mi NW 12.7 mph 25.3 mph 0.05 in Rain Rain
9:00 AM 60.8 °F 57.2 °F 88% 29.81 in 1.8 mi NNW 10.4 mph 18.4 mph 0.04 in Rain Heavy Rain
9:05 AM 60.8 °F 57.2 °F 88% 29.80 in 0.8 mi North 9.2 mph 18.4 mph 0.11 in Rain Heavy Rain
9:12 AM 60.8 °F 57.2 °F 88% 29.81 in 1.0 mi NNE 10.4 mph 21.9 mph 0.25 in Rain Heavy Rain
9:22 AM 60.8 °F 57.2 °F 88% 29.80 in 1.5 mi NNE 10.4 mph 19.6 mph 0.34 in Rain Heavy Rain
9:36 AM 60.8 °F 57.2 °F 88% 29.81 in 2.5 mi NNE 9.2 mph - 0.41 in Rain Rain
9:48 AM 60.8 °F 57.2 °F 88% 29.79 in 2.0 mi NE 10.4 mph 19.6 mph 0.45 in Rain Heavy Rain
9:51 AM 60.1 °F 57.0 °F 90% 29.79 in 2.0 mi NNE 11.5 mph 23.0 mph 0.48 in Rain Heavy Rain
10:09 AM 60.8 °F 57.2 °F 88% 29.80 in 1.8 mi NE 10.4 mph 17.3 mph 0.12 in Rain Heavy Rain
10:28 AM 59.0 °F 57.2 °F 94% 29.78 in 2.5 mi NE 12.7 mph 19.6 mph 0.23 in Rain Rain
10:51 AM 57.9 °F 55.9 °F 93% 29.78 in 2.0 mi NE 13.8 mph 21.9 mph 0.33 in Rain Heavy Rain
11:24 AM 57.2 °F 55.4 °F 94% 29.77 in 4.0 mi NE 12.7 mph 20.7 mph 0.13 in Rain Light Rain
11:51 AM 57.0 °F 54.0 °F 89% 29.74 in 10.0 mi NE 15.0 mph 29.9 mph 0.14 in Rain Light Rain
12:51 PM 59.0 °F 55.9 °F 90% 29.73 in 4.0 mi ENE 17.3 mph 28.8 mph 0.03 in Rain Rain
1:51 PM 61.0 °F 57.9 °F 90% 29.68 in 6.0 mi ENE 10.4 mph 27.6 mph 0.10 in Rain Light Rain
2:14 PM 60.8 °F 59.0 °F 94% 29.68 in 7.0 mi NE 16.1 mph 26.5 mph 0.01 in Rain Light Rain
2:51 PM 61.0 °F 57.9 °F 90% 29.70 in 9.0 mi NE 13.8 mph 25.3 mph 0.01 in Rain Light Rain
3:19 PM 60.8 °F 57.2 °F 88% 29.69 in 5.0 mi NE 11.5 mph 23.0 mph 0.02 in Rain Light Rain
3:40 PM 60.8 °F 57.2 °F 88% 29.69 in 7.0 mi NE 16.1 mph 27.6 mph 0.03 in Rain Light Rain
3:51 PM 60.1 °F 57.0 °F 90% 29.70 in 7.0 mi NE 16.1 mph 26.5 mph 0.03 in Rain Light Rain
4:24 PM 60.8 °F 57.2 °F 88% 29.70 in 3.0 mi NE 11.5 mph 25.3 mph 0.02 in Rain Light Rain
4:51 PM 60.1 °F 57.0 °F 90% 29.68 in 4.0 mi NE 19.6 mph 34.5 mph 0.06 in Rain Light Rain
5:31 PM 60.8 °F 57.2 °F 88% 29.69 in 10.0 mi ENE 16.1 mph 29.9 mph 0.01 in   Mostly Cloudy
5:42 PM 60.8 °F 57.2 °F 88% 29.70 in 9.0 mi ENE 13.8 mph 32.2 mph 0.01 in   Scattered Clouds
5:51 PM 60.1 °F 57.0 °F 90% 29.72 in 10.0 mi NE 16.1 mph 28.8 mph 0.01 in   Scattered Clouds
6:05 PM 60.8 °F 55.4 °F 82% 29.73 in 10.0 mi NE 10.4 mph 24.2 mph N/A   Mostly Cloudy
6:36 PM 60.8 °F 55.4 °F 82% 29.73 in 10.0 mi NE 15.0 mph 26.5 mph N/A   Overcast
6:49 PM 60.8 °F 55.4 °F 82% 29.73 in 10.0 mi NE 18.4 mph 29.9 mph 0.00 in Rain Light Rain
6:51 PM 60.1 °F 55.9 °F 86% 29.73 in 10.0 mi NE 18.4 mph 31.1 mph 0.00 in Rain Light Rain
7:51 PM 59.0 °F 55.0 °F 87% 29.76 in 6.0 mi NE 15.0 mph 31.1 mph 0.04 in Rain Rain
8:51 PM 59.0 °F 54.0 °F 83% 29.79 in 10.0 mi NE 23.0 mph 33.4 mph 0.05 in   Overcast
9:51 PM 59.0 °F 54.0 °F 83% 29.81 in 8.0 mi NNE 18.4 mph 41.4 mph N/A   Overcast
10:23 PM 59.0 °F 53.6 °F 82% 29.82 in 8.0 mi NNE 21.9 mph 40.3 mph 0.00 in   Overcast
10:47 PM 57.2 °F 51.8 °F 82% 29.83 in 9.0 mi NNE 18.4 mph 40.3 mph 0.00 in   Overcast
10:51 PM 57.9 °F 52.0 °F 81% 29.83 in 9.0 mi NNE 19.6 mph 40.3 mph 0.00 in   Overcast
11:23 PM 57.2 °F 50.0 °F 77% 29.86 in 10.0 mi NNE 19.6 mph 44.9 mph N/A   Overcast
11:51 PM 57.0 °F 48.9 °F 74% 29.88 in 10.0 mi NNE 24.2 mph 47.2 mph N/A   Overcast